Regional Weather Roundup
Issued by NWS

Home | Current Version | Previous Version | Graphics & Text | Print | Product List | Glossary On
Versions: 1 2 3 4 5 6 7 8 9 10 11 12 13 14 15 16 17 18 19 20 21 22 23 24 25 26 27 28 29 30 31 32 33 34 35 36 37 38 39 40 41 42 43 44 45 46 47 48 49 50
000
ASUS43 KLMK 231002
RWRKY
KENTUCKY REGIONAL WEATHER ROUNDUP
NATIONAL WEATHER SERVICE LOUISVILLE KY
600 AM EDT SAT JUL 23 2016

NOTE "FAIR" INDICATES FEW OR NO CLOUDS BELOW 12,000 FEET
WITH NO SIGNIFICANT WEATHER AND/OR OBSTRUCTIONS TO VISIBILITY.

KYZ001>023-026-027-061>063-070>075-231100-
WESTERN AND SOUTH CENTRAL KENTUCKY

CITY           SKY/WX    TMP DP  RH WIND       PRES   REMARKS
PADUCAH        CLOUDY    74  72  93 CALM      29.97S
HENDERSON      PTCLDY    73  70  88 CALM      29.98S
OWENSBORO      MOCLDY    74  73  96 CALM      30.00S
HOPKINSVILLE   MOCLDY    74  73  97 CALM      29.99S
BOWLING GREEN  MOCLDY    74  73  97 CALM      30.00F FOG
GLASGOW        NOT AVBL
$$

KYZ024-025-028>034-038-045-046-053-231100-
NORTH CENTRAL KENTUCKY

CITY           SKY/WX    TMP DP  RH WIND       PRES   REMARKS
LOUISVILLE/SDF PTCLDY    75  71  87 E3        30.01R
LOUISVILLE/LOU CLEAR     74  70  87 CALM      30.02R
FORT KNOX      CLOUDY    70  70 100 N2        30.01R FOG
$$

KYZ035>037-039>044-047>052-055>060-089>105-231100-
NORTHEAST KENTUCKY

CITY           SKY/WX    TMP DP  RH WIND       PRES   REMARKS
LEXINGTON      CLEAR     71  68  90 CALM      30.04R
COVINGTON      PTCLDY    74  72  93 N5        30.02R
FRANKFORT      CLEAR     71  68  90 CALM      30.02R
$$

KYZ054-064>069-076>088-106>120-231100-
SOUTHEAST KENTUCKY

CITY           SKY/WX    TMP DP  RH WIND       PRES   REMARKS
JACKSON        PTCLDY    71  68  90 CALM      30.06S
LONDON         CLOUDY    72  69  90 NE3       30.05S
SOMERSET       CLEAR     70  70 100 CALM      30.05S FOG
MIDDLESBORO    CLOUDY    72  71  96 CALM      30.06S
MONTICELLO     CLOUDY   N/A N/A N/A W8        30.05S HAZE
$$




USA.gov is the U.S. government's official web portal to all federal, state and local government web resources and services.